COSMOS 2529 (757)

Last updated on Mon Sep 21 2026 00:03:22 GMT+0000 (Coordinated Universal Time)

1 43687U 18086A 26262.97148942 -.00000012 00000+0 00000+0 0 9995 2 43687 64.2958 189.3961 0010258 254.5016 105.3970 2.13102042 61300
UTC large
Height (km)
Speed (km/s)
/
Latitude / Longitude
Inclination (degrees)
Orbital Period (minutes)
Azimuth
Elevation
Range (km)
Doppler Factor

Next 0 passes for location: London (51.5072 / 0.1276)

No passes found over London.
COSMOS 2529 (757)